User: anonymous   Login
Location: Newark
(45.5000°N, 11.4167°E)
Time: 21:51:03
(UTC+00:00)
Language:

Vanguard 3 - Orbit

View from above orbital plane
View from above orbital plane
View from above satellite
View from above satellite

Ground track
Ground track

The orbit data is extracted from the following two-line orbital elements,

1    20U 59007A   19236.23477195  .00000143  00000-0  60853-4 0  9996
2    20  33.3412 164.4421 1666949 124.7972 252.0981 11.55676171196132
Epoch (UTC): 24 August 2019 05:38:04
Eccentricity: 0.1666949
inclination: 33.3412°
perigee height: 508 km
apogee height: 3263 km
right ascension of ascending node: 164.4421°
argument of perigee: 124.7972°
revolutions per day: 11.55676171
mean anomaly at epoch: 252.0981°
orbit number at epoch: 19613

The dashed part of the orbit path shows where the satellite is in the earth's shadow,  

DLR